Location: Casilda
(33.0440°S, 61.1680°W)
Time: 15:31:10
(UTC-03:00)

ISS - Pass Details

Date: 19 June 2021
Orbit: 417 x 422 km, 51.6° (Epoch: 16 June)

Event Time Altitude Azimuth Distance (km) Brightness Sun altitude
Rises 20:06:01 0° 284° (WNW) 2,375 1.5 -24.5°
Reaches altitude 10° 20:08:26 10° 268° (W) 1,517 0.0 -25.0°
Enters shadow 20:10:35 21° 230° (SW) 1,029 -1.4 -25.5°
